"read_dt","SO2 (ppb)","flags","PMT voltage (V)","lamp voltage (V)","lamp intensity (Hz)","internal temp (C)","react chamber temp (C)","sample flow (l/min)","pres (mmHg)","SO2 bkg (ppb)","SO2 coefficient"
2014-08-01 00:00:00,2006E-3,5C000000,-0723,0831,12264,038.6,045.9,0.460,731.6,01.19,0.508
2014-08-01 00:01:00,2022E-3,5C000000,-0723,0831,12066,038.6,045.9,0.461,731.6,01.19,0.508
2014-08-01 00:02:00,1972E-3,5C000000,-0723,0831,12228,038.6,045.9,0.461,731.6,01.19,0.508
2014-08-01 00:03:00,1866E-3,5C000000,-0723,0831,12206,038.6,045.9,0.461,731.6,01.19,0.508
2014-08-01 00:04:00,1719E-3,5C000000,-0723,0830,12282,038.6,045.9,0.461,731.6,01.19,0.508
2014-08-01 00:05:00,2136E-3,5C000000,-0723,0830,12031,038.6,045.9,0.461,731.6,01.19,0.508
2014-08-01 00:06:00,1977E-3,5C000000,-0723,0832,12140,038.6,045.9,0.461,731.6,01.19,0.508
2014-08-01 00:07:00,1950E-3,5C000000,-0723,0831,12224,038.6,045.9,0.461,731.6,01.19,0.508
2014-08-01 00:08:00,2052E-3,5C000000,-0723,0831,12048,038.5,045.9,0.461,731.6,01.19,0.508
2014-08-01 00:09:00,1883E-3,5C000000,-0723,0830,12191,038.6,045.9,0.461,731.6,01.19,0.508
2014-08-01 00:10:00,2032E-3,5C000000,-0723,0831,12198,038.5,045.9,0.461,731.6,01.19,0.508
2014-08-01 00:11:00,2010E-3,5C000000,-0723,0830,12065,038.5,045.9,0.461,731.6,01.19,0.508
2014-08-01 00:12:00,2000E-3,5C000000,-0723,0830,12181,038.5,045.9,0.461,731.7,01.19,0.508
2014-08-01 00:13:00,1965E-3,5C000000,-0723,0830,12232,038.5,045.9,0.461,731.7,01.19,0.508
2014-08-01 00:14:00,1886E-3,5C000000,-0723,0831,12151,038.5,045.9,0.461,731.7,01.19,0.508
2014-08-01 00:15:00,2100E-3,5C000000,-0723,0831,12138,038.5,045.9,0.461,731.7,01.19,0.508
2014-08-01 00:16:00,2014E-3,5C000000,-0723,0830,12268,038.5,045.9,0.461,731.7,01.19,0.508
2014-08-01 00:17:00,2009E-3,5C000000,-0723,0830,12225,038.5,045.9,0.461,731.7,01.19,0.508
2014-08-01 00:18:00,2073E-3,5C000000,-0723,0831,12269,038.5,045.9,0.461,731.8,01.19,0.508
2014-08-01 00:19:00,1966E-3,5C000000,-0723,0832,12175,038.5,045.9,0.461,731.7,01.19,0.508
2014-08-01 00:20:00,1855E-3,5C000000,-0723,0831,12258,038.5,045.9,0.461,731.8,01.19,0.508
2014-08-01 00:21:00,1927E-3,5C000000,-0723,0831,12161,038.5,045.9,0.461,731.8,01.19,0.508
2014-08-01 00:22:00,1832E-3,5C000000,-0723,0831,12152,038.5,045.9,0.461,731.7,01.19,0.508
2014-08-01 00:23:00,1913E-3,5C000000,-0723,0831,12408,038.6,045.9,0.461,731.8,01.19,0.508
2014-08-01 00:24:00,1921E-3,5C000000,-0723,0831,11991,038.5,045.9,0.461,731.8,01.19,0.508
2014-08-01 00:25:00,1957E-3,5C000000,-0723,0831,11843,038.5,045.9,0.461,731.7,01.19,0.508
2014-08-01 00:26:00,1939E-3,5C000000,-0723,0830,12112,038.6,045.9,0.461,731.8,01.19,0.508
2014-08-01 00:27:00,2146E-3,5C000000,-0723,0831,12104,038.6,045.9,0.461,731.8,01.19,0.508
2014-08-01 00:28:00,1930E-3,5C000000,-0723,0831,12207,038.6,045.9,0.461,731.8,01.19,0.508
2014-08-01 00:29:00,2037E-3,5C000000,-0723,0831,11867,038.6,045.9,0.461,731.8,01.19,0.508
2014-08-01 00:30:00,1841E-3,5C000000,-0723,0831,12120,038.5,045.9,0.461,731.8,01.19,0.508
2014-08-01 00:31:00,1945E-3,5C000000,-0723,0831,12107,038.6,045.9,0.461,731.8,01.19,0.508
2014-08-01 00:32:00,1997E-3,5C000000,-0723,0830,12185,038.6,045.9,0.461,731.8,01.19,0.508
2014-08-01 00:33:00,1808E-3,5C000000,-0723,0831,12292,038.6,045.9,0.461,731.8,01.19,0.508
2014-08-01 00:34:00,1966E-3,5C000000,-0723,0832,12241,038.6,045.9,0.461,731.8,01.19,0.508
2014-08-01 00:35:00,1987E-3,5C000000,-0723,0831,12251,038.6,045.9,0.461,731.8,01.19,0.508
2014-08-01 00:36:00,1895E-3,5C000000,-0723,0831,12312,038.6,045.9,0.461,731.7,01.19,0.508
2014-08-01 00:37:00,1901E-3,5C000000,-0723,0830,12055,038.6,045.9,0.461,731.7,01.19,0.508
2014-08-01 00:38:00,1957E-3,5C000000,-0723,0829,12123,038.6,045.8,0.461,731.8,01.19,0.508
2014-08-01 00:39:00,1739E-3,5C000000,-0723,0831,12086,038.6,045.9,0.461,731.8,01.19,0.508
2014-08-01 00:40:00,2009E-3,5C000000,-0723,0830,12214,038.6,045.9,0.461,731.7,01.19,0.508
2014-08-01 00:41:00,1924E-3,5C000000,-0723,0831,12214,038.6,045.9,0.461,731.7,01.19,0.508
2014-08-01 00:42:00,1854E-3,5C000000,-0723,0830,12005,038.6,045.9,0.461,731.8,01.19,0.508
2014-08-01 00:43:00,1884E-3,5C000000,-0723,0831,12273,038.6,045.9,0.461,731.8,01.19,0.508
2014-08-01 00:44:00,1887E-3,5C000000,-0723,0830,12316,038.6,045.9,0.461,731.8,01.19,0.508
2014-08-01 00:45:00,1823E-3,5C000000,-0723,0831,12280,038.6,045.9,0.460,731.8,01.19,0.508
2014-08-01 00:46:00,1942E-3,5C000000,-0723,0830,12244,038.6,045.9,0.461,731.8,01.19,0.508
2014-08-01 00:47:00,2065E-3,5C000000,-0723,0832,12274,038.6,045.9,0.461,731.9,01.19,0.508
2014-08-01 00:48:00,2036E-3,5C000000,-0723,0831,12230,038.6,045.9,0.461,731.9,01.19,0.508
2014-08-01 00:49:00,1937E-3,5C000000,-0723,0831,12208,038.6,045.9,0.461,731.9,01.19,0.508
2014-08-01 00:50:00,1964E-3,5C000000,-0723,0832,12261,038.6,045.9,0.461,731.9,01.19,0.508
2014-08-01 00:51:00,2003E-3,5C000000,-0723,0830,12327,038.6,045.9,0.460,731.9,01.19,0.508
2014-08-01 00:52:00,1917E-3,5C000000,-0723,0830,12182,038.6,045.9,0.461,731.9,01.19,0.508
2014-08-01 00:53:00,1988E-3,5C000000,-0723,0830,12203,038.6,045.9,0.461,732.0,01.19,0.508
2014-08-01 00:54:00,2177E-3,5C000000,-0723,0830,12273,038.6,045.9,0.461,731.9,01.19,0.508
2014-08-01 00:55:00,2088E-3,5C000000,-0723,0831,12178,038.6,045.9,0.461,732.0,01.19,0.508
2014-08-01 00:56:00,1899E-3,5C000000,-0723,0830,11994,038.6,045.9,0.461,731.9,01.19,0.508
2014-08-01 00:57:00,2048E-3,5C000000,-0723,0831,12263,038.6,045.8,0.461,732.0,01.19,0.508
2014-08-01 00:58:00,2063E-3,5C000000,-0723,0831,12056,038.6,045.9,0.461,732.0,01.19,0.508
2014-08-01 00:59:00,1925E-3,5C000000,-0723,0831,12156,038.6,045.8,0.461,732.0,01.19,0.508
2014-08-01 01:00:00,1919E-3,5C000000,-0723,0830,12138,038.6,045.9,0.461,732.0,01.19,0.508
2014-08-01 01:01:00,1934E-3,5C000000,-0723,0832,12145,038.6,045.9,0.461,732.0,01.19,0.508
2014-08-01 01:02:00,2062E-3,5C000000,-0723,0829,12058,038.6,045.9,0.461,732.0,01.19,0.508
2014-08-01 01:03:00,1872E-3,5C000000,-0723,0831,12193,038.6,045.9,0.461,732.0,01.19,0.508
2014-08-01 01:04:00,2000E-3,5C000000,-0723,0831,12293,038.6,045.9,0.460,732.0,01.19,0.508
2014-08-01 01:05:00,1968E-3,5C000000,-0723,0831,12087,038.6,045.9,0.461,732.0,01.19,0.508
2014-08-01 01:06:00,1859E-3,5C000000,-0723,0830,12231,038.6,045.9,0.461,732.0,01.19,0.508
2014-08-01 01:07:00,1856E-3,5C000000,-0723,0830,12053,038.6,045.9,0.460,732.0,01.19,0.508
2014-08-01 01:08:00,2000E-3,5C000000,-0723,0831,12170,038.6,045.9,0.461,732.0,01.19,0.508
2014-08-01 01:09:00,1923E-3,5C000000,-0723,0831,12142,038.6,045.9,0.461,732.0,01.19,0.508
2014-08-01 01:10:00,1998E-3,5C000000,-0723,0831,11987,038.6,045.9,0.460,732.0,01.19,0.508
2014-08-01 01:11:00,1969E-3,5C000000,-0723,0830,12276,038.6,045.9,0.461,732.0,01.19,0.508
2014-08-01 01:12:00,1840E-3,5C000000,-0723,0830,12149,038.6,045.9,0.461,732.0,01.19,0.508
2014-08-01 01:13:00,1924E-3,5C000000,-0723,0831,12221,038.6,045.9,0.461,732.0,01.19,0.508
2014-08-01 01:14:00,1952E-3,5C000000,-0723,0830,12160,038.6,045.9,0.461,732.0,01.19,0.508
2014-08-01 01:15:00,1988E-3,5C000000,-0723,0830,12105,038.6,045.9,0.461,732.1,01.19,0.508
2014-08-01 01:16:00,1826E-3,5C000000,-0723,0830,12215,038.6,045.9,0.461,732.0,01.19,0.508
2014-08-01 01:17:00,1952E-3,5C000000,-0723,0830,12199,038.6,045.9,0.461,732.0,01.19,0.508
2014-08-01 01:18:00,1838E-3,5C000000,-0723,0831,12225,038.6,045.9,0.461,732.0,01.19,0.508
2014-08-01 01:19:00,2031E-3,5C000000,-0723,0830,12275,038.6,045.9,0.461,732.0,01.19,0.508
2014-08-01 01:20:00,1889E-3,5C000000,-0723,0831,12012,038.6,045.9,0.461,732.0,01.19,0.508
2014-08-01 01:21:00,2106E-3,5C000000,-0723,0830,12183,038.6,045.9,0.461,732.0,01.19,0.508
2014-08-01 01:22:00,1863E-3,5C000000,-0723,0830,12252,038.6,045.9,0.461,732.0,01.19,0.508
2014-08-01 01:23:00,1869E-3,5C000000,-0723,0831,12299,038.6,045.9,0.461,732.0,01.19,0.508
2014-08-01 01:24:00,1966E-3,5C000000,-0723,0830,12224,038.6,045.9,0.461,732.0,01.19,0.508
2014-08-01 01:25:00,1972E-3,5C000000,-0723,0830,12243,038.6,045.9,0.461,732.1,01.19,0.508
2014-08-01 01:26:00,1966E-3,5C000000,-0723,0831,11943,038.5,045.9,0.461,732.1,01.19,0.508
2014-08-01 01:27:00,1936E-3,5C000000,-0723,0829,12313,038.5,045.9,0.461,732.1,01.19,0.508
2014-08-01 01:28:00,2035E-3,5C000000,-0723,0830,12030,038.5,045.9,0.461,732.1,01.19,0.508
2014-08-01 01:29:00,1859E-3,5C000000,-0723,0830,12238,038.5,045.8,0.461,732.1,01.19,0.508
2014-08-01 01:30:00,1938E-3,5C000000,-0723,0830,12237,038.5,045.9,0.461,732.1,01.19,0.508
2014-08-01 01:31:00,1903E-3,5C000000,-0723,0830,12129,038.5,045.9,0.461,732.1,01.19,0.508
2014-08-01 01:32:00,1958E-3,5C000000,-0723,0831,12125,038.5,045.9,0.461,732.2,01.19,0.508
2014-08-01 01:33:00,1912E-3,5C000000,-0723,0830,12225,038.5,045.9,0.461,732.2,01.19,0.508
2014-08-01 01:34:00,1847E-3,5C000000,-0723,0830,12260,038.5,045.9,0.461,732.2,01.19,0.508
2014-08-01 01:35:00,2124E-3,5C000000,-0723,0831,12216,038.5,045.9,0.461,732.2,01.19,0.508
2014-08-01 01:36:00,1971E-3,5C000000,-0723,0830,11817,038.5,045.9,0.461,732.3,01.19,0.508
2014-08-01 01:37:00,1839E-3,5C000000,-0723,0831,12074,038.5,045.9,0.461,732.2,01.19,0.508
2014-08-01 01:38:00,1927E-3,5C000000,-0723,0830,12317,038.5,045.9,0.461,732.2,01.19,0.508
2014-08-01 01:39:00,1922E-3,5C000000,-0723,0830,11850,038.5,045.9,0.461,732.2,01.19,0.508
2014-08-01 01:40:00,2016E-3,5C000000,-0723,0831,12238,038.5,045.9,0.461,732.2,01.19,0.508
2014-08-01 01:41:00,1973E-3,5C000000,-0723,0832,12264,038.5,045.9,0.461,732.2,01.19,0.508
2014-08-01 01:42:00,2037E-3,5C000000,-0723,0831,12075,038.5,045.9,0.461,732.2,01.19,0.508
2014-08-01 01:43:00,1930E-3,5C000000,-0723,0832,12277,038.5,045.9,0.461,732.2,01.19,0.508
2014-08-01 01:44:00,1928E-3,5C000000,-0723,0831,12177,038.5,045.9,0.461,732.2,01.19,0.508
2014-08-01 01:45:00,1943E-3,5C000000,-0723,0830,12190,038.5,045.9,0.461,732.2,01.19,0.508
2014-08-01 01:46:00,1863E-3,5C000000,-0723,0831,12366,038.5,045.9,0.461,732.1,01.19,0.508
2014-08-01 01:47:00,1878E-3,5C000000,-0723,0831,12163,038.4,045.9,0.461,732.2,01.19,0.508
2014-08-01 01:48:00,1913E-3,5C000000,-0723,0831,12147,038.5,045.9,0.461,732.2,01.19,0.508
2014-08-01 01:49:00,1912E-3,5C000000,-0723,0831,12185,038.5,045.8,0.461,732.2,01.19,0.508
2014-08-01 01:50:00,2081E-3,5C000000,-0723,0830,12301,038.5,045.9,0.461,732.2,01.19,0.508
2014-08-01 01:51:00,1838E-3,5C000000,-0723,0830,12284,038.4,045.8,0.461,732.2,01.19,0.508
2014-08-01 01:52:00,1980E-3,5C000000,-0723,0831,12143,038.5,045.8,0.461,732.2,01.19,0.508
2014-08-01 01:53:00,1875E-3,5C000000,-0723,0831,12271,038.4,045.9,0.461,732.1,01.19,0.508
2014-08-01 01:54:00,1885E-3,5C000000,-0723,0830,12168,038.4,045.9,0.461,732.1,01.19,0.508
2014-08-01 01:55:00,1938E-3,5C000000,-0723,0830,12211,038.4,045.9,0.461,732.2,01.19,0.508
2014-08-01 01:56:00,1846E-3,5C000000,-0723,0830,12141,038.4,045.8,0.461,732.1,01.19,0.508
2014-08-01 01:57:00,2035E-3,5C000000,-0723,0831,12246,038.4,045.8,0.461,732.2,01.19,0.508
2014-08-01 01:58:00,1962E-3,5C000000,-0723,0831,12234,038.4,045.8,0.461,732.2,01.19,0.508
2014-08-01 01:59:00,1897E-3,5C000000,-0723,0830,12192,038.4,045.8,0.461,732.2,01.19,0.508
2014-08-01 02:00:00,1866E-3,5C000000,-0723,0830,12305,038.4,045.9,0.461,732.3,01.19,0.508
2014-08-01 02:01:00,2019E-3,5C000000,-0723,0831,12086,038.3,045.9,0.461,732.3,01.19,0.508
2014-08-01 02:02:00,1949E-3,5C000000,-0723,0830,12199,038.3,045.9,0.462,732.2,01.19,0.508
2014-08-01 02:03:00,1830E-3,5C000000,-0723,0830,12338,038.2,045.9,0.461,732.3,01.19,0.508
2014-08-01 02:04:00,1900E-3,5C000000,-0723,0830,12133,038.2,045.9,0.461,732.2,01.19,0.508
2014-08-01 02:05:00,1909E-3,5C000000,-0723,0831,12152,038.1,045.8,0.462,732.3,01.19,0.508
2014-08-01 02:06:00,1921E-3,5C000000,-0723,0830,12236,038.1,045.8,0.461,732.3,01.19,0.508
2014-08-01 02:07:00,1843E-3,5C000000,-0723,0830,12254,038.0,045.8,0.461,732.3,01.19,0.508
2014-08-01 02:08:00,1812E-3,5C000000,-0723,0829,12293,038.0,045.9,0.462,732.3,01.19,0.508
2014-08-01 02:09:00,1948E-3,5C000000,-0723,0829,12175,037.9,045.8,0.462,732.4,01.19,0.508
2014-08-01 02:10:00,1896E-3,5C000000,-0723,0830,12216,037.8,045.8,0.462,732.4,01.19,0.508
2014-08-01 02:11:00,1845E-3,5C000000,-0723,0829,12114,037.8,045.8,0.462,732.3,01.19,0.508
2014-08-01 02:12:00,1985E-3,5C000000,-0723,0830,12295,037.7,045.8,0.462,732.4,01.19,0.508
2014-08-01 02:13:00,1891E-3,5C000000,-0723,0829,12185,037.7,045.8,0.462,732.3,01.19,0.508
2014-08-01 02:14:00,1846E-3,5C000000,-0723,0830,12192,037.6,045.8,0.463,732.4,01.19,0.508
2014-08-01 02:15:00,1977E-3,5C000000,-0723,0830,12179,037.6,045.8,0.462,732.4,01.19,0.508
2014-08-01 02:16:00,1854E-3,5C000000,-0723,0829,12226,037.5,045.8,0.462,732.5,01.19,0.508
2014-08-01 02:17:00,1934E-3,5C000000,-0723,0830,12131,037.5,045.8,0.462,732.5,01.19,0.508
2014-08-01 02:18:00,1977E-3,5C000000,-0723,0830,12364,037.4,045.8,0.463,732.3,01.19,0.508
2014-08-01 02:19:00,1987E-3,5C000000,-0723,0829,12301,037.4,045.8,0.463,732.5,01.19,0.508
2014-08-01 02:20:00,1846E-3,5C000000,-0723,0830,12230,037.3,045.8,0.463,732.4,01.19,0.508
2014-08-01 02:21:00,1972E-3,5C000000,-0723,0829,12190,037.2,045.8,0.463,732.3,01.19,0.508
2014-08-01 02:22:00,1913E-3,5C000000,-0723,0829,12246,037.1,045.8,0.463,732.4,01.19,0.508
2014-08-01 02:23:00,1911E-3,5C000000,-0723,0828,12270,037.1,045.8,0.463,732.3,01.19,0.508
2014-08-01 02:24:00,1925E-3,5C000000,-0723,0829,12184,037.0,045.8,0.463,732.5,01.19,0.508
2014-08-01 02:25:00,1818E-3,5C000000,-0723,0829,12264,037.0,045.8,0.463,732.4,01.19,0.508
2014-08-01 02:26:00,1932E-3,5C000000,-0723,0829,12084,036.9,045.8,0.463,732.5,01.19,0.508
2014-08-01 02:27:00,1901E-3,5C000000,-0723,0829,12185,036.9,045.8,0.463,732.5,01.19,0.508
2014-08-01 02:28:00,1863E-3,5C000000,-0723,0830,12033,036.8,045.8,0.463,732.5,01.19,0.508
2014-08-01 02:29:00,1975E-3,5C000000,-0723,0828,12274,036.7,045.8,0.463,732.5,01.19,0.508
2014-08-01 02:30:00,1802E-3,5C000000,-0723,0829,12029,036.7,045.8,0.463,732.5,01.19,0.508
2014-08-01 02:31:00,1830E-3,5C000000,-0723,0828,12167,036.6,045.8,0.464,732.5,01.19,0.508
2014-08-01 02:32:00,1820E-3,5C000000,-0723,0829,12062,036.6,045.8,0.464,732.5,01.19,0.508
2014-08-01 02:33:00,1874E-3,5C000000,-0723,0829,12297,036.5,045.8,0.464,732.6,01.19,0.508
2014-08-01 02:34:00,1846E-3,5C000000,-0723,0830,12239,036.5,045.8,0.464,732.5,01.19,0.508
2014-08-01 02:35:00,1850E-3,5C000000,-0723,0828,11913,036.4,045.8,0.464,732.5,01.19,0.508
2014-08-01 02:36:00,1847E-3,5C000000,-0723,0830,12295,036.3,045.8,0.464,732.5,01.19,0.508
2014-08-01 02:37:00,1804E-3,5C000000,-0723,0828,12149,036.3,045.8,0.464,732.5,01.19,0.508
2014-08-01 02:38:00,1701E-3,5C000000,-0723,0828,12207,036.2,045.8,0.464,732.5,01.19,0.508
2014-08-01 02:39:00,1784E-3,5C000000,-0723,0827,12100,036.2,045.8,0.464,732.6,01.19,0.508
2014-08-01 02:40:00,1755E-3,5C000000,-0723,0829,12166,036.1,045.8,0.465,732.6,01.19,0.508
2014-08-01 02:41:00,1818E-3,5C000000,-0723,0829,12223,036.1,045.8,0.465,732.5,01.19,0.508
2014-08-01 02:42:00,2001E-3,5C000000,-0723,0828,12148,036.1,045.8,0.465,732.6,01.19,0.508
2014-08-01 02:43:00,1774E-3,5C000000,-0723,0828,12293,036.0,045.8,0.465,732.5,01.19,0.508
2014-08-01 02:44:00,1734E-3,5C000000,-0723,0828,12228,036.0,045.8,0.465,732.6,01.19,0.508
2014-08-01 02:45:00,1938E-3,5C000000,-0723,0829,12326,036.0,045.8,0.465,732.6,01.19,0.508
2014-08-01 02:46:00,1858E-3,5C000000,-0723,0829,12300,035.9,045.8,0.465,732.6,01.19,0.508
2014-08-01 02:47:00,1969E-3,5C000000,-0723,0829,12235,035.9,045.8,0.465,732.6,01.19,0.508
2014-08-01 02:48:00,1872E-3,5C000000,-0723,0829,12051,035.9,045.8,0.465,732.6,01.19,0.508
2014-08-01 02:49:00,1849E-3,5C000000,-0723,0829,12243,035.9,045.8,0.466,732.6,01.19,0.508
2014-08-01 02:50:00,1971E-3,5C000000,-0723,0829,12211,035.9,045.8,0.465,732.7,01.19,0.508
2014-08-01 02:51:00,1966E-3,5C000000,-0723,0828,12099,035.9,045.8,0.465,732.5,01.19,0.508
2014-08-01 02:52:00,1802E-3,5C000000,-0723,0829,12142,035.9,045.8,0.465,732.6,01.19,0.508
2014-08-01 02:53:00,1913E-3,5C000000,-0723,0829,12146,035.9,045.8,0.466,732.6,01.19,0.508
2014-08-01 02:54:00,1830E-3,5C000000,-0723,0829,12245,035.9,045.8,0.465,732.6,01.19,0.508
2014-08-01 02:55:00,1789E-3,5C000000,-0723,0828,12237,035.9,045.8,0.465,732.7,01.19,0.508
2014-08-01 02:56:00,1806E-3,5C000000,-0723,0829,12316,035.9,045.8,0.465,732.7,01.19,0.508
2014-08-01 02:57:00,1846E-3,5C000000,-0723,0829,12148,035.9,045.8,0.466,732.7,01.19,0.508
2014-08-01 02:58:00,1836E-3,5C000000,-0723,0828,12244,035.9,045.8,0.465,732.6,01.19,0.508
2014-08-01 02:59:00,1947E-3,5C000000,-0723,0830,12135,035.9,045.8,0.465,732.8,01.19,0.508
2014-08-01 03:00:00,1871E-3,5C000000,-0723,0827,12217,035.9,045.8,0.465,732.8,01.19,0.508
2014-08-01 03:01:00,2033E-3,5C000000,-0723,0829,12244,035.9,045.8,0.465,732.7,01.19,0.508
2014-08-01 03:02:00,1902E-3,5C000000,-0723,0828,12228,036.0,045.8,0.465,732.8,01.19,0.508
2014-08-01 03:03:00,1860E-3,5C000000,-0723,0829,12181,036.0,045.8,0.465,732.8,01.19,0.508
2014-08-01 03:04:00,1913E-3,5C000000,-0723,0830,12141,036.0,045.8,0.465,732.8,01.19,0.508
2014-08-01 03:05:00,1931E-3,5C000000,-0723,0828,12070,036.0,045.8,0.465,732.8,01.19,0.508
2014-08-01 03:06:00,1774E-3,5C000000,-0723,0829,12194,036.0,045.8,0.465,732.8,01.19,0.508
2014-08-01 03:07:00,1808E-3,5C000000,-0723,0830,12312,036.0,045.8,0.465,732.8,01.19,0.508
2014-08-01 03:08:00,1789E-3,5C000000,-0723,0829,12223,036.0,045.8,0.465,732.8,01.19,0.508
2014-08-01 03:09:00,1849E-3,5C000000,-0723,0829,12136,036.0,045.7,0.465,732.8,01.19,0.508
2014-08-01 03:10:00,1877E-3,5C000000,-0723,0829,12196,036.0,045.8,0.465,732.8,01.19,0.508
2014-08-01 03:11:00,1994E-3,5C000000,-0723,0828,12371,036.1,045.8,0.465,732.8,01.19,0.508
2014-08-01 03:12:00,1843E-3,5C000000,-0723,0829,12193,036.1,045.8,0.465,732.8,01.19,0.508
2014-08-01 03:13:00,1850E-3,5C000000,-0723,0829,12137,036.1,045.8,0.465,732.8,01.19,0.508
2014-08-01 03:14:00,1851E-3,5C000000,-0723,0829,12137,036.1,045.8,0.465,732.8,01.19,0.508
2014-08-01 03:15:00,1787E-3,5C000000,-0723,0829,12384,036.1,045.8,0.465,732.8,01.19,0.508
2014-08-01 03:16:00,1844E-3,5C000000,-0723,0829,12271,036.1,045.8,0.465,732.8,01.19,0.508
2014-08-01 03:17:00,1886E-3,5C000000,-0723,0829,12131,036.1,045.8,0.465,732.9,01.19,0.508
2014-08-01 03:18:00,1877E-3,5C000000,-0723,0829,12211,036.1,045.8,0.464,732.8,01.19,0.508
2014-08-01 03:19:00,2005E-3,5C000000,-0723,0829,12382,036.2,045.8,0.464,732.8,01.19,0.508
2014-08-01 03:20:00,1887E-3,5C000000,-0723,0828,12205,036.2,045.8,0.465,732.9,01.19,0.508
2014-08-01 03:21:00,1982E-3,5C000000,-0723,0829,12148,036.2,045.8,0.465,732.9,01.19,0.508
2014-08-01 03:22:00,1921E-3,5C000000,-0723,0828,12140,036.2,045.8,0.465,732.9,01.19,0.508
2014-08-01 03:23:00,1966E-3,5C000000,-0723,0828,12030,036.2,045.8,0.465,732.8,01.19,0.508
2014-08-01 03:24:00,1817E-3,5C000000,-0723,0829,12155,036.2,045.8,0.465,732.9,01.19,0.508
2014-08-01 03:25:00,1814E-3,5C000000,-0723,0829,12354,036.2,045.8,0.464,732.9,01.19,0.508
2014-08-01 03:26:00,1832E-3,5C000000,-0723,0828,12032,036.2,045.8,0.464,732.9,01.19,0.508
2014-08-01 03:27:00,1949E-3,5C000000,-0723,0828,12167,036.2,045.8,0.464,732.9,01.19,0.508
2014-08-01 03:28:00,1935E-3,5C000000,-0723,0828,12198,036.2,045.8,0.465,733.0,01.19,0.508
2014-08-01 03:29:00,1773E-3,5C000000,-0723,0830,12284,036.3,045.8,0.465,733.0,01.19,0.508
2014-08-01 03:30:00,1823E-3,5C000000,-0723,0830,12095,036.3,045.8,0.465,732.9,01.19,0.508
2014-08-01 03:31:00,1894E-3,5C000000,-0723,0829,12168,036.3,045.8,0.465,733.0,01.19,0.508
2014-08-01 03:32:00,1928E-3,5C000000,-0723,0829,12232,036.3,045.8,0.465,733.0,01.19,0.508
2014-08-01 03:33:00,1862E-3,5C000000,-0723,0829,12345,036.3,045.8,0.464,733.0,01.19,0.508
2014-08-01 03:34:00,1935E-3,5C000000,-0723,0829,12292,036.3,045.8,0.464,733.0,01.19,0.508
2014-08-01 03:35:00,1826E-3,5C000000,-0723,0829,12240,036.3,045.8,0.464,733.0,01.19,0.508
2014-08-01 03:36:00,1900E-3,5C000000,-0723,0829,12092,036.3,045.8,0.464,733.0,01.19,0.508
2014-08-01 03:37:00,1801E-3,5C000000,-0723,0829,11985,036.4,045.8,0.464,733.0,01.19,0.508
2014-08-01 03:38:00,1739E-3,5C000000,-0723,0829,12199,036.4,045.8,0.465,733.0,01.19,0.508
2014-08-01 03:39:00,1903E-3,5C000000,-0723,0829,12309,036.4,045.8,0.465,733.0,01.19,0.508
2014-08-01 03:40:00,1982E-3,5C000000,-0723,0829,12106,036.4,045.8,0.465,732.9,01.19,0.508
2014-08-01 03:41:00,1955E-3,5C000000,-0723,0828,12033,036.4,045.8,0.465,733.0,01.19,0.508
2014-08-01 03:42:00,1889E-3,5C000000,-0723,0828,12099,036.4,045.8,0.465,733.0,01.19,0.508
2014-08-01 03:43:00,1870E-3,5C000000,-0723,0830,12323,036.4,045.8,0.465,733.0,01.19,0.508
2014-08-01 03:44:00,1924E-3,5C000000,-0723,0829,12270,036.4,045.8,0.464,733.0,01.19,0.508
2014-08-01 03:45:00,1920E-3,5C000000,-0723,0828,12145,036.4,045.8,0.464,733.0,01.19,0.508
2014-08-01 03:46:00,2066E-3,5C000000,-0723,0829,12304,036.4,045.8,0.464,733.1,01.19,0.508
2014-08-01 03:47:00,1848E-3,5C000000,-0723,0830,12279,036.4,045.8,0.464,733.1,01.19,0.508
2014-08-01 03:48:00,1746E-3,5C000000,-0723,0830,12361,036.4,045.8,0.464,733.1,01.19,0.508
2014-08-01 03:49:00,1720E-3,5C000000,-0723,0829,12243,036.4,045.8,0.464,733.1,01.19,0.508
2014-08-01 03:50:00,1849E-3,5C000000,-0723,0830,12212,036.5,045.8,0.464,733.0,01.19,0.508
2014-08-01 03:51:00,1821E-3,5C000000,-0723,0829,12263,036.5,045.8,0.464,733.0,01.19,0.508
2014-08-01 03:52:00,1854E-3,5C000000,-0723,0829,12020,036.4,045.8,0.465,733.0,01.19,0.508
2014-08-01 03:53:00,1829E-3,5C000000,-0723,0829,12127,036.5,045.8,0.465,733.0,01.19,0.508
2014-08-01 03:54:00,1847E-3,5C000000,-0723,0829,12358,036.4,045.8,0.465,733.0,01.19,0.508
2014-08-01 03:55:00,1824E-3,5C000000,-0723,0829,12035,036.5,045.8,0.465,733.0,01.19,0.508
2014-08-01 03:56:00,1985E-3,5C000000,-0723,0828,12205,036.5,045.8,0.464,733.1,01.19,0.508
2014-08-01 03:57:00,1861E-3,5C000000,-0723,0830,12215,036.5,045.8,0.464,733.0,01.19,0.508
2014-08-01 03:58:00,1878E-3,5C000000,-0723,0830,11990,036.5,045.8,0.464,733.0,01.19,0.508
2014-08-01 03:59:00,1895E-3,5C000000,-0723,0830,12093,036.5,045.8,0.464,733.0,01.19,0.508
2014-08-01 04:00:00,1920E-3,5C000000,-0723,0830,12061,036.5,045.8,0.464,733.0,01.19,0.508
2014-08-01 04:01:00,1862E-3,5C000000,-0723,0829,12277,036.5,045.8,0.464,733.0,01.19,0.508
2014-08-01 04:02:00,1757E-3,5C000000,-0723,0829,12185,036.5,045.8,0.464,733.0,01.19,0.508
2014-08-01 04:03:00,1898E-3,5C000000,-0723,0830,12194,036.5,045.8,0.464,733.0,01.19,0.508
2014-08-01 04:04:00,1828E-3,5C000000,-0723,0830,12316,036.5,045.8,0.464,733.0,01.19,0.508
2014-08-01 04:05:00,1849E-3,5C000000,-0723,0829,12278,036.5,045.8,0.464,733.0,01.19,0.508
2014-08-01 04:06:00,1769E-3,5C000000,-0723,0829,12300,036.5,045.8,0.464,733.0,01.19,0.508
2014-08-01 04:07:00,1868E-3,5C000000,-0723,0829,12200,036.5,045.8,0.464,733.0,01.19,0.508
2014-08-01 04:08:00,2013E-3,5C000000,-0723,0829,12127,036.5,045.8,0.464,733.0,01.19,0.508
2014-08-01 04:09:00,1933E-3,5C000000,-0723,0829,12161,036.5,045.8,0.464,733.1,01.19,0.508
2014-08-01 04:10:00,2015E-3,5C000000,-0723,0829,12312,036.5,045.8,0.465,733.0,01.19,0.508
2014-08-01 04:11:00,1896E-3,5C000000,-0723,0829,12325,036.5,045.8,0.465,733.1,01.19,0.508
2014-08-01 04:12:00,1789E-3,5C000000,-0723,0829,12185,036.5,045.8,0.464,733.1,01.19,0.508
2014-08-01 04:13:00,1854E-3,5C000000,-0723,0829,12272,036.5,045.8,0.464,733.1,01.19,0.508
2014-08-01 04:14:00,1898E-3,5C000000,-0723,0828,12241,036.5,045.8,0.464,733.1,01.19,0.508
2014-08-01 04:15:00,2020E-3,5C000000,-0723,0829,12190,036.5,045.8,0.464,733.1,01.19,0.508
2014-08-01 04:16:00,1998E-3,5C000000,-0723,0830,12214,036.5,045.8,0.464,733.0,01.19,0.508
2014-08-01 04:17:00,1805E-3,5C000000,-0723,0830,11942,036.5,045.8,0.464,733.1,01.19,0.508
2014-08-01 04:18:00,2000E-3,5C000000,-0723,0829,12276,036.5,045.8,0.464,733.1,01.19,0.508
2014-08-01 04:19:00,1798E-3,5C000000,-0723,0830,12030,036.5,045.8,0.464,733.0,01.19,0.508
2014-08-01 04:20:00,1872E-3,5C000000,-0723,0830,12357,036.5,045.8,0.464,733.0,01.19,0.508